Showing default

QPS-SAR-7 TSUKUYOMI-II, 59447

Orbit data source: Space-Track

QPS-SAR-7 TSUKUYOMI-II, 59447 is a payload satellite owned by QPS Labs (JP) in LEO that was launched on Sun, 07 Apr 2024 UTC via an FALCON 9 launch vehicle from the Air Force Eastern Test Range (AFETR). Payload-class satellites include a variety of spacecraft equipped with specific instruments for various scientific and technological missions. These include communications satellites like Starlink; space stations such as the ISS; scientific satellites like the Hubble; Earth observation satellites from companies like Planet Labs, Umbra, and HawkEye 360; GPS; miniature CubeSats for education and research; and military/defense satellites.

Loading next visibility...
Identifier
59447, 2024-066F
Orbit
LEO
Country
Flag of JPJP / JPN
Related business
Manufacturer
QPS Labs
Mission
Operational Commercial Radar Imaging
Bus & Motor
QSAT, Unknown motor
Mass
~120 kg wet, ~100 kg dry
Launch date (UTC)
2024-04-07 (2 years ago)
Launch vehicle
FALCON 9
Launch site
Air Force Eastern Test Range (AFETR)
Object type
Payload
Rocket body
Debris
Shape & HBR
Hex Cyl + 2 Pan + 1 Dish, 1.8 m
Radar Cross Section
1.179 m², Large (>1 m²)

Expand to show TLE details & history
Last TLE update: 19 hours ago

TLE from 19 hours ago
0 QPS-SAR-7 TSUKUYOMI-II
1 59447U 24066F   25293.79270977  .00011479  00000-0  82053-3 0  9999
2 59447  45.6056  57.9815 0002802 241.2487 118.8115 15.04624070 84110
Epoch: 2025-10-20T19:01Z
TLE epoch observation values (Epoch: 2025-10-20T19:01:30.124Z)
Latitude
-0.00001°
Longitude
103.11605°
Altitude
553.662 km
Speed
7.586 km/s
True Right ascension
03h 51m 55s
True Declination
0° 00' 00"
Sunlit
Object was in full shadow at epoch
Visualization orbit readout
Latitude
Unknown
Longitude
Unknown
Altitude
Unknown
Speed
Unknown
Apparent Right ascension
Unknown
Apparent Declination
Unknown
Sunlit
N/A
Visualization observer readout
Local Sidereal Time
09:14:17
Azimuth
Unknown
Elevation
Unknown
Doppler factor
Unknown
Orbital elements
Apogee altitude
556.095 km
Perigee altitude
552.21 km
Semi-major axis
6,932.289 km
Eccentricity
0.00028
Inclination
45.6056°
RAAN
57.9815°
Arg. of periapsis
241.2487°
True anomaly
118.83963°
Mean anomaly
118.8115°
Eccentric anomaly
118.82557°
Mean motion
3.76035 °/min
Orbital period
95.74 mins
BSTAR
0.00082053
Loading maneuver chart data...
Computing Atmospheric mass density...
Loading historical data...
Loading historical data...
Loading historical data...
Loading historical data...
Loading historical data...
Loading historical data...
Loading historical data...

Documentation

Showing up to 5 results
|